Year,Month,Day,Hour,Minute,Value (Times are PST for temperature in C)
2015,06,07,00,00,17.90
2015,06,07,00,01,17.90
2015,06,07,00,02,17.90
2015,06,07,00,03,17.90
2015,06,07,00,04,17.90
2015,06,07,00,05,17.90
2015,06,07,00,06,17.90
2015,06,07,00,07,17.90
2015,06,07,00,08,17.90
2015,06,07,00,09,17.90
2015,06,07,00,10,17.90
2015,06,07,00,11,17.90
2015,06,07,00,12,17.90
2015,06,07,00,16,17.90
2015,06,07,00,17,17.90
2015,06,07,00,18,17.90
2015,06,07,00,19,18.00
2015,06,07,00,20,18.10
2015,06,07,00,21,18.10
2015,06,07,00,22,18.10
2015,06,07,00,23,18.10
2015,06,07,00,24,18.10
2015,06,07,00,25,18.10
2015,06,07,00,26,18.10
2015,06,07,00,27,18.10
2015,06,07,00,28,18.10
2015,06,07,00,29,18.10
2015,06,07,00,30,18.10
2015,06,07,00,31,18.10
2015,06,07,00,32,18.10
2015,06,07,00,33,18.10
2015,06,07,00,34,18.10
2015,06,07,00,35,18.10
2015,06,07,00,36,18.10
2015,06,07,00,37,18.10
2015,06,07,00,38,18.20
2015,06,07,00,39,18.20
2015,06,07,00,40,18.20
2015,06,07,00,41,18.20
2015,06,07,00,42,18.20
2015,06,07,00,43,18.20
2015,06,07,00,44,18.20
2015,06,07,00,45,18.20
2015,06,07,00,46,18.10
2015,06,07,00,47,18.10
2015,06,07,00,48,18.10
2015,06,07,00,49,18.10
2015,06,07,00,50,18.10
2015,06,07,00,51,18.10
2015,06,07,00,52,18.10
2015,06,07,00,53,18.10
2015,06,07,00,54,18.10
2015,06,07,00,55,18.10
2015,06,07,00,56,18.10
2015,06,07,00,57,18.10
2015,06,07,00,58,18.00
2015,06,07,00,59,17.90
2015,06,07,01,00,17.90
2015,06,07,01,01,17.90
2015,06,07,01,02,17.90
2015,06,07,01,03,17.90
2015,06,07,01,04,17.90
2015,06,07,01,05,17.90
2015,06,07,01,06,17.90
2015,06,07,01,07,17.90
2015,06,07,01,08,17.90
2015,06,07,01,09,17.90
2015,06,07,01,10,17.90
2015,06,07,01,11,17.90
2015,06,07,01,12,17.90
2015,06,07,01,13,17.90
2015,06,07,01,14,17.90
2015,06,07,01,15,17.90
2015,06,07,01,16,17.80
2015,06,07,01,17,17.80
2015,06,07,01,18,17.80
2015,06,07,01,19,17.80
2015,06,07,01,20,17.70
2015,06,07,01,21,17.70
2015,06,07,01,22,17.70
2015,06,07,01,23,17.70
2015,06,07,01,24,17.60
2015,06,07,01,25,17.60
2015,06,07,01,26,17.60
2015,06,07,01,27,17.50
2015,06,07,01,28,17.50
2015,06,07,01,29,17.50
2015,06,07,01,30,17.40
2015,06,07,01,31,17.40
2015,06,07,01,32,17.40
2015,06,07,01,33,17.30
2015,06,07,01,34,17.30
2015,06,07,01,35,17.30
2015,06,07,01,36,17.30
2015,06,07,01,37,17.20
2015,06,07,01,38,17.20
2015,06,07,01,39,17.20
2015,06,07,01,40,17.10
2015,06,07,01,41,17.10
2015,06,07,01,42,17.10
2015,06,07,01,43,17.00
2015,06,07,01,44,17.00
2015,06,07,01,45,16.90
2015,06,07,01,46,16.90
2015,06,07,01,47,16.80
2015,06,07,01,48,16.80
2015,06,07,01,49,16.70
2015,06,07,01,50,16.70
2015,06,07,01,51,16.70
2015,06,07,01,52,16.70
2015,06,07,01,53,16.70
2015,06,07,01,54,16.70
2015,06,07,01,55,16.70
2015,06,07,01,56,16.70
2015,06,07,01,57,16.70
2015,06,07,01,58,16.70
2015,06,07,01,59,16.70
2015,06,07,02,00,16.70
2015,06,07,02,01,16.60
2015,06,07,02,02,16.60
2015,06,07,02,03,16.60
2015,06,07,02,04,16.60
2015,06,07,02,05,16.60
2015,06,07,02,06,16.50
2015,06,07,02,07,16.40
2015,06,07,02,08,16.40
2015,06,07,02,09,16.40
2015,06,07,02,10,16.40
2015,06,07,02,11,16.40
2015,06,07,02,12,16.40
2015,06,07,02,13,16.40
2015,06,07,02,14,16.40
2015,06,07,02,15,16.30
2015,06,07,02,16,16.30
2015,06,07,02,17,16.30
2015,06,07,02,18,16.30
2015,06,07,02,19,16.30
2015,06,07,02,20,16.30
2015,06,07,02,21,16.30
2015,06,07,02,22,16.30
2015,06,07,02,23,16.20
2015,06,07,02,24,16.20
2015,06,07,02,25,16.20
2015,06,07,02,26,16.20
2015,06,07,02,27,16.20
2015,06,07,02,28,16.10
2015,06,07,02,29,16.10
2015,06,07,02,30,16.10
2015,06,07,02,31,16.10
2015,06,07,02,32,16.10
2015,06,07,02,33,16.00
2015,06,07,02,34,15.90
2015,06,07,02,35,15.90
2015,06,07,02,36,15.90
2015,06,07,02,37,15.80
2015,06,07,02,38,15.80
2015,06,07,02,39,15.80
2015,06,07,02,40,15.80
2015,06,07,02,41,15.80
2015,06,07,02,42,15.70
2015,06,07,02,43,15.70
2015,06,07,02,44,15.60
2015,06,07,02,45,15.50
2015,06,07,02,46,15.50
2015,06,07,02,47,15.40
2015,06,07,02,48,15.30
2015,06,07,02,49,15.30
2015,06,07,02,50,15.20
2015,06,07,02,51,15.10
2015,06,07,02,52,15.00
2015,06,07,02,53,15.00
2015,06,07,02,54,14.90
2015,06,07,02,55,14.80
2015,06,07,02,56,14.80
2015,06,07,02,57,14.80
2015,06,07,02,58,14.80
2015,06,07,02,59,14.70
2015,06,07,03,00,14.70
2015,06,07,03,01,14.70
2015,06,07,03,02,14.60
2015,06,07,03,03,14.60
2015,06,07,03,04,14.60
2015,06,07,03,05,14.50
2015,06,07,03,06,14.50
2015,06,07,03,07,14.50
2015,06,07,03,08,14.50
2015,06,07,03,09,14.40
2015,06,07,03,10,14.40
2015,06,07,03,11,14.40
2015,06,07,03,12,14.30
2015,06,07,03,13,14.30
2015,06,07,03,14,14.20
2015,06,07,03,15,14.20
2015,06,07,03,16,14.20
2015,06,07,03,17,14.20
2015,06,07,03,18,14.20
2015,06,07,03,19,14.10
2015,06,07,03,20,14.10
2015,06,07,03,21,14.10
2015,06,07,03,22,14.00
2015,06,07,03,23,14.00
2015,06,07,03,24,14.00
2015,06,07,03,25,14.00
2015,06,07,03,26,13.90
2015,06,07,03,27,13.90
2015,06,07,03,28,13.90
2015,06,07,03,29,13.90
2015,06,07,03,30,13.90
2015,06,07,03,31,13.80
2015,06,07,03,32,13.80
2015,06,07,03,33,13.80
2015,06,07,03,34,13.80
2015,06,07,03,35,13.80
2015,06,07,03,36,13.80
2015,06,07,03,37,13.80
2015,06,07,03,38,13.80
2015,06,07,03,39,13.80
2015,06,07,03,40,13.80
2015,06,07,03,41,13.80
2015,06,07,03,42,13.80
2015,06,07,03,43,13.80
2015,06,07,03,44,13.80
2015,06,07,03,45,13.80
2015,06,07,03,46,13.80
2015,06,07,03,47,13.80
2015,06,07,03,48,13.80
2015,06,07,03,49,13.80
2015,06,07,03,50,13.80
2015,06,07,03,51,13.80
2015,06,07,03,52,13.80
2015,06,07,03,53,13.80
2015,06,07,03,54,13.80
2015,06,07,03,55,13.80
2015,06,07,03,56,13.80
2015,06,07,03,57,13.80
2015,06,07,03,58,13.80
2015,06,07,03,59,13.80
2015,06,07,04,00,13.70
2015,06,07,04,01,13.70
2015,06,07,04,02,13.70
2015,06,07,04,03,13.70
2015,06,07,04,04,13.70
2015,06,07,04,05,13.70
2015,06,07,04,06,13.70
2015,06,07,04,07,13.70
2015,06,07,04,08,13.70
2015,06,07,04,09,13.60
2015,06,07,04,10,13.60
2015,06,07,04,11,13.60
2015,06,07,04,12,13.60
2015,06,07,04,13,13.60
2015,06,07,04,14,13.50
2015,06,07,04,15,13.50
2015,06,07,04,16,13.50
2015,06,07,04,17,13.50
2015,06,07,04,18,13.50
2015,06,07,04,19,13.40
2015,06,07,04,20,13.40
2015,06,07,04,21,13.40
2015,06,07,04,22,13.40
2015,06,07,04,23,13.40
2015,06,07,04,24,13.30
2015,06,07,04,25,13.30
2015,06,07,04,26,13.30
2015,06,07,04,27,13.30
2015,06,07,04,28,13.30
2015,06,07,04,29,13.30
2015,06,07,04,30,13.30
2015,06,07,04,31,13.30
2015,06,07,04,32,13.20
2015,06,07,04,33,13.20
2015,06,07,04,34,13.20
2015,06,07,04,35,13.20
2015,06,07,04,36,13.20
2015,06,07,04,37,13.20
2015,06,07,04,38,13.20
2015,06,07,04,39,13.20
2015,06,07,04,40,13.20
2015,06,07,04,41,13.10
2015,06,07,04,42,13.10
2015,06,07,04,43,13.10
2015,06,07,04,44,13.10
2015,06,07,04,45,13.10
2015,06,07,04,46,13.10
2015,06,07,04,47,13.10
2015,06,07,04,48,13.10
2015,06,07,04,49,13.10
2015,06,07,04,50,13.10
2015,06,07,04,51,13.10
2015,06,07,04,52,13.10
2015,06,07,04,53,13.00
2015,06,07,04,54,13.10
2015,06,07,04,55,13.00
2015,06,07,04,56,13.00
2015,06,07,04,57,13.00
2015,06,07,04,58,13.00
2015,06,07,04,59,13.00
2015,06,07,05,00,13.00
2015,06,07,05,01,13.00
2015,06,07,05,02,13.00
2015,06,07,05,03,13.00
2015,06,07,05,04,12.90
2015,06,07,05,05,12.90
2015,06,07,05,06,12.90
2015,06,07,05,07,12.90
2015,06,07,05,08,12.90
2015,06,07,05,09,12.90
2015,06,07,05,10,12.90
2015,06,07,05,11,12.90
2015,06,07,05,12,12.90
2015,06,07,05,13,12.90
2015,06,07,05,14,12.80
2015,06,07,05,15,12.80
2015,06,07,05,16,12.80
2015,06,07,05,17,12.80
2015,06,07,05,18,12.80
2015,06,07,05,19,12.80
2015,06,07,05,20,12.80
2015,06,07,05,21,12.80
2015,06,07,05,22,12.80
2015,06,07,05,23,12.80
2015,06,07,05,24,12.80
2015,06,07,05,25,12.80
2015,06,07,05,26,12.80
2015,06,07,05,27,12.80
2015,06,07,05,28,12.80
2015,06,07,05,29,12.80
2015,06,07,05,30,12.80
2015,06,07,05,31,12.80
2015,06,07,05,32,12.80
2015,06,07,05,33,12.80
2015,06,07,05,34,12.80
2015,06,07,05,35,12.80
2015,06,07,05,36,12.80
2015,06,07,05,37,12.80
2015,06,07,05,38,12.80
2015,06,07,05,39,12.80
2015,06,07,05,40,12.80
2015,06,07,05,41,12.80
2015,06,07,05,42,12.80
2015,06,07,05,43,12.80
2015,06,07,05,44,12.80
2015,06,07,05,45,12.90
2015,06,07,05,46,12.90
2015,06,07,05,47,12.90
2015,06,07,05,48,12.90
2015,06,07,05,49,12.90
2015,06,07,05,50,12.90
2015,06,07,05,51,12.90
2015,06,07,05,52,12.90
2015,06,07,05,53,12.90
2015,06,07,05,54,12.90
2015,06,07,05,55,12.90
2015,06,07,05,56,12.90
2015,06,07,05,57,12.90
2015,06,07,05,58,12.90
2015,06,07,05,59,12.90
2015,06,07,06,00,12.90
2015,06,07,06,01,13.00
2015,06,07,06,02,13.00
2015,06,07,06,03,13.00
2015,06,07,06,04,13.00
2015,06,07,06,05,13.10
2015,06,07,06,06,13.10
2015,06,07,06,07,13.10
2015,06,07,06,08,13.20
2015,06,07,06,09,13.20
2015,06,07,06,10,13.20
2015,06,07,06,11,13.30
2015,06,07,06,12,13.30
2015,06,07,06,13,13.40
2015,06,07,06,14,13.40
2015,06,07,06,15,13.50
2015,06,07,06,16,13.50
2015,06,07,06,17,13.60
2015,06,07,06,18,13.60
2015,06,07,06,19,13.70
2015,06,07,06,20,13.80
2015,06,07,06,21,13.90
2015,06,07,06,22,14.00
2015,06,07,06,23,14.20
2015,06,07,06,24,14.20
2015,06,07,06,25,14.30
2015,06,07,06,26,14.50
2015,06,07,06,27,14.60
2015,06,07,06,28,14.70
2015,06,07,06,29,14.90
2015,06,07,06,30,15.00
2015,06,07,06,31,15.10
2015,06,07,06,32,15.30
2015,06,07,06,33,15.40
2015,06,07,06,34,15.50
2015,06,07,06,35,15.60
2015,06,07,06,36,15.70
2015,06,07,06,37,15.80
2015,06,07,06,38,15.90
2015,06,07,06,39,16.10
2015,06,07,06,40,16.20
2015,06,07,06,41,16.30
2015,06,07,06,42,16.40
2015,06,07,06,43,16.40
2015,06,07,06,44,16.40
2015,06,07,06,45,16.40
2015,06,07,06,46,16.50
2015,06,07,06,47,16.60
2015,06,07,06,48,16.70
2015,06,07,06,49,16.70
2015,06,07,06,50,16.80
2015,06,07,06,51,16.90
2015,06,07,06,52,17.00
2015,06,07,06,53,17.10
2015,06,07,06,54,17.20
2015,06,07,06,55,17.30
2015,06,07,06,56,17.40
2015,06,07,06,57,17.50
2015,06,07,06,58,17.50
2015,06,07,06,59,17.60
2015,06,07,07,00,17.60
2015,06,07,07,01,17.70
2015,06,07,07,02,17.70
2015,06,07,07,03,17.80
2015,06,07,07,04,17.80
2015,06,07,07,05,17.80
2015,06,07,07,06,17.70
2015,06,07,07,07,17.70
2015,06,07,07,08,17.80
2015,06,07,07,09,17.80
2015,06,07,07,10,17.80
2015,06,07,07,11,17.80
2015,06,07,07,12,17.80
2015,06,07,07,13,17.90
2015,06,07,07,14,18.00
2015,06,07,07,15,18.10
2015,06,07,07,16,18.20
2015,06,07,07,17,18.20
2015,06,07,07,18,18.20
2015,06,07,07,19,18.20
2015,06,07,07,20,18.30
2015,06,07,07,21,18.30
2015,06,07,07,22,18.40
2015,06,07,07,23,18.40
2015,06,07,07,24,18.50
2015,06,07,07,25,18.60
2015,06,07,07,26,18.70
2015,06,07,07,27,18.80
2015,06,07,07,28,18.90
2015,06,07,07,29,18.90
2015,06,07,07,30,19.10
2015,06,07,07,31,19.10
2015,06,07,07,32,19.30
2015,06,07,07,33,19.50
2015,06,07,07,34,19.60
2015,06,07,07,35,19.60
2015,06,07,07,36,19.70
2015,06,07,07,37,19.80
2015,06,07,07,38,19.80
2015,06,07,07,39,19.80
2015,06,07,07,40,19.90
2015,06,07,07,41,19.90
2015,06,07,07,42,20.00
2015,06,07,07,43,20.10
2015,06,07,07,44,20.20
2015,06,07,07,45,20.20
2015,06,07,07,46,20.20
2015,06,07,07,47,20.30
2015,06,07,07,48,20.30
2015,06,07,07,49,20.40
2015,06,07,07,50,20.50
2015,06,07,07,51,20.50
2015,06,07,07,52,20.60
2015,06,07,07,53,20.70
2015,06,07,07,54,20.70
2015,06,07,07,55,20.70
2015,06,07,07,56,20.60
2015,06,07,07,57,20.50
2015,06,07,07,58,20.40
2015,06,07,07,59,20.40
2015,06,07,08,00,20.40
2015,06,07,08,01,20.40
2015,06,07,08,02,20.40
2015,06,07,08,03,20.40
2015,06,07,08,04,20.40
2015,06,07,08,05,20.40
2015,06,07,08,06,20.50
2015,06,07,08,07,20.50
2015,06,07,08,08,20.60
2015,06,07,08,09,20.60
2015,06,07,08,10,20.70
2015,06,07,08,11,20.80
2015,06,07,08,12,20.80
2015,06,07,08,13,20.90
2015,06,07,08,14,21.00
2015,06,07,08,15,21.00
2015,06,07,08,16,21.00
2015,06,07,08,17,21.10
2015,06,07,08,18,21.10
2015,06,07,08,19,21.10
2015,06,07,08,20,21.00
2015,06,07,08,21,20.90
2015,06,07,08,22,20.80
2015,06,07,08,23,20.80
2015,06,07,08,24,20.90
2015,06,07,08,25,20.90
2015,06,07,08,26,21.00
2015,06,07,08,27,21.00
2015,06,07,08,28,21.00
2015,06,07,08,29,21.00
2015,06,07,08,30,20.90
2015,06,07,08,31,20.80
2015,06,07,08,32,20.80
2015,06,07,08,33,20.80
2015,06,07,08,34,20.70
2015,06,07,08,35,20.70
2015,06,07,08,36,20.60
2015,06,07,08,37,20.50
2015,06,07,08,38,20.50
2015,06,07,08,39,20.50
2015,06,07,08,40,20.50
2015,06,07,08,41,20.40
2015,06,07,08,42,20.40
2015,06,07,08,43,20.50
2015,06,07,08,44,20.50
2015,06,07,08,45,20.50
2015,06,07,08,46,20.50
2015,06,07,08,47,20.50
2015,06,07,08,48,20.50
2015,06,07,08,49,20.50
2015,06,07,08,50,20.50
2015,06,07,08,51,20.50
2015,06,07,08,52,20.50
2015,06,07,08,53,20.60
2015,06,07,08,54,20.60
2015,06,07,08,55,20.70
2015,06,07,08,56,20.70
2015,06,07,08,57,20.70
2015,06,07,08,58,20.70
2015,06,07,08,59,20.70
2015,06,07,09,00,20.70
2015,06,07,09,01,20.60
2015,06,07,09,02,20.60
2015,06,07,09,03,20.60
2015,06,07,09,04,20.50
2015,06,07,09,05,20.40
2015,06,07,09,06,20.30
2015,06,07,09,07,20.20
2015,06,07,09,08,20.10
2015,06,07,09,09,20.10
2015,06,07,09,10,20.10
2015,06,07,09,11,20.10
2015,06,07,09,12,20.00
2015,06,07,09,13,19.90
2015,06,07,09,14,19.90
2015,06,07,09,15,19.90
2015,06,07,09,16,19.90
2015,06,07,09,17,19.90
2015,06,07,09,18,19.80
2015,06,07,09,19,19.70
2015,06,07,09,20,19.70
2015,06,07,09,21,19.80
2015,06,07,09,22,19.80
2015,06,07,09,23,19.90
2015,06,07,09,24,19.90
2015,06,07,09,25,19.80
2015,06,07,09,26,19.80
2015,06,07,09,27,19.70
2015,06,07,09,28,19.70
2015,06,07,09,29,19.70
2015,06,07,09,30,19.80
2015,06,07,09,31,19.80
2015,06,07,09,32,19.90
2015,06,07,09,33,19.90
2015,06,07,09,34,19.90
2015,06,07,09,35,19.90
2015,06,07,09,36,19.90
2015,06,07,09,37,19.90
2015,06,07,09,38,20.00
2015,06,07,09,39,20.10
2015,06,07,09,40,20.10
2015,06,07,09,41,20.20
2015,06,07,09,42,20.30
2015,06,07,09,43,20.30
2015,06,07,09,44,20.40
2015,06,07,09,45,20.50
2015,06,07,09,46,20.50
2015,06,07,09,47,20.60
2015,06,07,09,48,20.70
2015,06,07,09,49,20.80
2015,06,07,09,50,20.80
2015,06,07,09,51,20.80
2015,06,07,09,52,20.80
2015,06,07,09,53,20.80
2015,06,07,09,54,20.80
2015,06,07,09,55,20.70
2015,06,07,09,56,20.60
2015,06,07,09,57,20.40
2015,06,07,09,58,20.30
2015,06,07,09,59,20.10
2015,06,07,10,00,20.00
2015,06,07,10,01,19.90
2015,06,07,10,02,19.90
2015,06,07,10,03,19.80
2015,06,07,10,04,19.80
2015,06,07,10,05,19.80
2015,06,07,10,06,19.70
2015,06,07,10,07,19.70
2015,06,07,10,08,19.70
2015,06,07,10,09,19.80
2015,06,07,10,10,19.80
2015,06,07,10,11,19.90
2015,06,07,10,12,20.00
2015,06,07,10,13,20.20
2015,06,07,10,14,20.20
2015,06,07,10,15,20.20
2015,06,07,10,16,20.10
2015,06,07,10,17,20.00
2015,06,07,10,18,19.90
2015,06,07,10,19,19.80
2015,06,07,10,20,19.80
2015,06,07,10,21,19.70
2015,06,07,10,22,19.70
2015,06,07,10,23,19.70
2015,06,07,10,24,19.70
2015,06,07,10,25,19.70
2015,06,07,10,26,19.80
2015,06,07,10,27,19.80
2015,06,07,10,28,20.00
2015,06,07,10,29,20.10
2015,06,07,10,30,20.30
2015,06,07,10,31,20.40
2015,06,07,10,32,20.50
2015,06,07,10,33,20.60
2015,06,07,10,34,20.80
2015,06,07,10,35,20.80
2015,06,07,10,36,20.80
2015,06,07,10,37,20.80
2015,06,07,10,38,20.80
2015,06,07,10,39,20.90
2015,06,07,10,40,21.00
2015,06,07,10,41,21.00
2015,06,07,10,42,21.10
2015,06,07,10,43,21.30
2015,06,07,10,44,21.30
2015,06,07,10,45,21.30
2015,06,07,10,46,21.40
2015,06,07,10,47,21.30
2015,06,07,10,48,21.20
2015,06,07,10,49,21.20
2015,06,07,10,50,21.20
2015,06,07,10,51,21.20
2015,06,07,10,52,21.20
2015,06,07,10,53,21.20
2015,06,07,10,54,21.10
2015,06,07,10,55,21.10
2015,06,07,10,56,21.10
2015,06,07,10,57,21.10
2015,06,07,10,58,21.10
2015,06,07,10,59,21.30
2015,06,07,11,00,21.50
2015,06,07,11,01,21.50
2015,06,07,11,02,21.40
2015,06,07,11,03,21.40
2015,06,07,11,04,21.40
2015,06,07,11,05,21.40
2015,06,07,11,06,21.40
2015,06,07,11,07,21.50
2015,06,07,11,08,21.50
2015,06,07,11,09,21.40
2015,06,07,11,10,21.50
2015,06,07,11,11,21.60
2015,06,07,11,12,21.60
2015,06,07,11,13,21.70
2015,06,07,11,14,21.90
2015,06,07,11,15,22.00
2015,06,07,11,16,22.00
2015,06,07,11,17,22.00
2015,06,07,11,18,22.10
2015,06,07,11,19,22.20
2015,06,07,11,20,22.20
2015,06,07,11,21,22.20
2015,06,07,11,22,22.10
2015,06,07,11,23,22.00
2015,06,07,11,24,22.00
2015,06,07,11,25,22.00
2015,06,07,11,26,21.90
2015,06,07,11,27,21.90
2015,06,07,11,28,22.00
2015,06,07,11,29,22.00
2015,06,07,11,30,22.00
2015,06,07,11,31,22.00
2015,06,07,11,32,22.00
2015,06,07,11,33,22.00
2015,06,07,11,34,22.00
2015,06,07,11,35,22.10
2015,06,07,11,36,22.20
2015,06,07,11,37,22.20
2015,06,07,11,38,22.20
2015,06,07,11,39,22.20
2015,06,07,11,40,22.20
2015,06,07,11,41,22.10
2015,06,07,11,42,22.10
2015,06,07,11,43,22.20
2015,06,07,11,44,22.30
2015,06,07,11,45,22.30
2015,06,07,11,46,22.50
2015,06,07,11,47,22.60
2015,06,07,11,48,22.70
2015,06,07,11,49,22.70
2015,06,07,11,50,22.70
2015,06,07,11,51,22.80
2015,06,07,11,52,22.90
2015,06,07,11,53,23.10
2015,06,07,11,54,23.10
2015,06,07,11,55,23.10
2015,06,07,11,56,23.00
2015,06,07,11,57,22.90
2015,06,07,11,58,22.90
2015,06,07,11,59,22.90
2015,06,07,12,00,23.10
2015,06,07,12,01,23.10
2015,06,07,12,02,23.00
2015,06,07,12,03,23.10
2015,06,07,12,04,23.10
2015,06,07,12,05,23.10
2015,06,07,12,06,23.10
2015,06,07,12,07,23.10
2015,06,07,12,08,23.10
2015,06,07,12,09,23.10
2015,06,07,12,10,23.10
2015,06,07,12,11,23.10
2015,06,07,12,12,23.10
2015,06,07,12,13,23.00
2015,06,07,12,14,22.90
2015,06,07,12,15,23.00
2015,06,07,12,16,23.10
2015,06,07,12,17,23.10
2015,06,07,12,18,23.20
2015,06,07,12,19,23.20
2015,06,07,12,20,23.10
2015,06,07,12,21,23.00
2015,06,07,12,22,23.10
2015,06,07,12,23,23.20
2015,06,07,12,24,23.30
2015,06,07,12,25,23.40
2015,06,07,12,26,23.60
2015,06,07,12,27,23.70
2015,06,07,12,28,23.70
2015,06,07,12,29,23.80
2015,06,07,12,30,24.00
2015,06,07,12,31,24.10
2015,06,07,12,32,24.10
2015,06,07,12,33,24.10
2015,06,07,12,34,24.20
2015,06,07,12,35,24.30
2015,06,07,12,36,24.30
2015,06,07,12,37,24.30
2015,06,07,12,38,24.20
2015,06,07,12,39,24.20
2015,06,07,12,40,24.10
2015,06,07,12,41,24.10
2015,06,07,12,42,24.10
2015,06,07,12,43,24.00
2015,06,07,12,44,23.80
2015,06,07,12,45,23.70
2015,06,07,12,46,23.70
2015,06,07,12,47,23.70
2015,06,07,12,48,23.70
2015,06,07,12,49,23.70
2015,06,07,12,50,23.70
2015,06,07,12,51,23.60
2015,06,07,12,52,23.60
2015,06,07,12,53,23.50
2015,06,07,12,54,23.40
2015,06,07,12,55,23.50
2015,06,07,12,56,23.40
2015,06,07,12,57,23.40
2015,06,07,12,58,23.40
2015,06,07,12,59,23.60
2015,06,07,13,00,23.70
2015,06,07,13,01,23.70
2015,06,07,13,02,23.70
2015,06,07,13,03,23.70
2015,06,07,13,04,23.80
2015,06,07,13,05,23.80
2015,06,07,13,06,23.90
2015,06,07,13,07,24.10
2015,06,07,13,08,24.10
2015,06,07,13,09,24.10
2015,06,07,13,10,24.10
2015,06,07,13,11,24.10
2015,06,07,13,12,24.10
2015,06,07,13,13,24.10
2015,06,07,13,14,23.90
2015,06,07,13,15,24.00
2015,06,07,13,16,24.10
2015,06,07,13,17,24.10
2015,06,07,13,18,24.00
2015,06,07,13,19,23.90
2015,06,07,13,20,23.80
2015,06,07,13,21,23.70
2015,06,07,13,22,23.70
2015,06,07,13,23,23.70
2015,06,07,13,24,23.80
2015,06,07,13,25,23.80
2015,06,07,13,26,23.80
2015,06,07,13,27,23.70
2015,06,07,13,28,23.70
2015,06,07,13,29,23.80
2015,06,07,13,30,23.80
2015,06,07,13,31,23.80
2015,06,07,13,32,23.80
2015,06,07,13,33,23.70
2015,06,07,13,34,23.70
2015,06,07,13,35,23.70
2015,06,07,13,36,23.70
2015,06,07,13,37,23.80
2015,06,07,13,38,24.00
2015,06,07,13,39,24.10
2015,06,07,13,40,24.10
2015,06,07,13,41,24.10
2015,06,07,13,42,23.90
2015,06,07,13,43,23.80
2015,06,07,13,44,23.60
2015,06,07,13,45,23.40
2015,06,07,13,46,23.30
2015,06,07,13,47,23.20
2015,06,07,13,48,23.10
2015,06,07,13,49,23.00
2015,06,07,13,50,22.90
2015,06,07,13,51,22.90
2015,06,07,13,52,22.90
2015,06,07,13,53,22.90
2015,06,07,13,54,22.90
2015,06,07,13,55,22.80
2015,06,07,13,56,22.80
2015,06,07,13,57,22.90
2015,06,07,13,58,22.90
2015,06,07,13,59,22.90
2015,06,07,14,00,23.00
2015,06,07,14,01,23.10
2015,06,07,14,02,23.10
2015,06,07,14,03,23.30
2015,06,07,14,04,23.50
2015,06,07,14,05,23.70
2015,06,07,14,06,23.90
2015,06,07,14,07,24.10
2015,06,07,14,08,24.30
2015,06,07,14,09,24.40
2015,06,07,14,10,24.50
2015,06,07,14,11,24.50
2015,06,07,14,12,24.60
2015,06,07,14,13,24.70
2015,06,07,14,14,24.80
2015,06,07,14,15,24.80
2015,06,07,14,16,24.80
2015,06,07,14,17,24.80
2015,06,07,14,18,24.70
2015,06,07,14,19,24.50
2015,06,07,14,20,24.40
2015,06,07,14,21,24.20
2015,06,07,14,22,24.10
2015,06,07,14,23,24.00
2015,06,07,14,24,23.90
2015,06,07,14,25,23.90
2015,06,07,14,26,23.80
2015,06,07,14,27,23.80
2015,06,07,14,28,23.80
2015,06,07,14,29,23.80
2015,06,07,14,30,24.00
2015,06,07,14,31,24.10
2015,06,07,14,32,24.10
2015,06,07,14,33,24.30
2015,06,07,14,34,24.40
2015,06,07,14,35,24.50
2015,06,07,14,36,24.60
2015,06,07,14,37,24.60
2015,06,07,14,38,24.70
2015,06,07,14,39,24.70
2015,06,07,14,40,24.70
2015,06,07,14,41,24.80
2015,06,07,14,42,24.80
2015,06,07,14,43,24.60
2015,06,07,14,44,24.30
2015,06,07,14,45,24.10
2015,06,07,14,46,24.10
2015,06,07,14,47,24.10
2015,06,07,14,48,24.10
2015,06,07,14,49,24.10
2015,06,07,14,50,24.10
2015,06,07,14,51,24.20
2015,06,07,14,52,24.20
2015,06,07,14,53,24.10
2015,06,07,14,54,24.10
2015,06,07,14,55,24.10
2015,06,07,14,56,24.10
2015,06,07,14,57,24.10
2015,06,07,14,58,24.10
2015,06,07,14,59,24.10
2015,06,07,15,00,24.10
2015,06,07,15,01,24.10
2015,06,07,15,02,24.10
2015,06,07,15,03,24.10
2015,06,07,15,04,24.20
2015,06,07,15,05,24.30
2015,06,07,15,06,24.40
2015,06,07,15,07,24.50
2015,06,07,15,08,24.50
2015,06,07,15,09,24.50
2015,06,07,15,10,24.60
2015,06,07,15,11,24.40
2015,06,07,15,12,24.30
2015,06,07,15,13,24.10
2015,06,07,15,14,24.10
2015,06,07,15,15,24.30
2015,06,07,15,16,24.40
2015,06,07,15,17,24.40
2015,06,07,15,18,24.30
2015,06,07,15,19,24.20
2015,06,07,15,20,24.10
2015,06,07,15,21,24.10
2015,06,07,15,22,24.10
2015,06,07,15,23,24.20
2015,06,07,15,24,24.30
2015,06,07,15,25,24.30
2015,06,07,15,26,24.30
2015,06,07,15,27,24.40
2015,06,07,15,28,24.50
2015,06,07,15,29,24.60
2015,06,07,15,30,24.70
2015,06,07,15,31,24.80
2015,06,07,15,32,24.80
2015,06,07,15,33,24.70
2015,06,07,15,34,24.50
2015,06,07,15,35,24.40
2015,06,07,15,36,24.20
2015,06,07,15,37,24.20
2015,06,07,15,38,24.30
2015,06,07,15,39,24.40
2015,06,07,15,40,24.50
2015,06,07,15,41,24.50
2015,06,07,15,42,24.50
2015,06,07,15,43,24.50
2015,06,07,15,44,24.60
2015,06,07,15,45,24.70
2015,06,07,15,46,24.80
2015,06,07,15,47,24.90
2015,06,07,15,48,25.00
2015,06,07,15,49,25.00
2015,06,07,15,50,25.00
2015,06,07,15,51,25.10
2015,06,07,15,52,25.10
2015,06,07,15,53,25.10
2015,06,07,15,54,25.10
2015,06,07,15,55,25.10
2015,06,07,15,56,25.00
2015,06,07,15,57,24.90
2015,06,07,15,58,24.60
2015,06,07,15,59,24.50
2015,06,07,16,00,24.40
2015,06,07,16,01,24.40
2015,06,07,16,02,24.40
2015,06,07,16,03,24.30
2015,06,07,16,04,24.30
2015,06,07,16,05,24.40
2015,06,07,16,06,24.40
2015,06,07,16,07,24.50
2015,06,07,16,08,24.60
2015,06,07,16,09,24.60
2015,06,07,16,10,24.60
2015,06,07,16,11,24.70
2015,06,07,16,12,24.70
2015,06,07,16,13,24.80
2015,06,07,16,14,24.90
2015,06,07,16,15,24.90
2015,06,07,16,16,25.00
2015,06,07,16,17,25.00
2015,06,07,16,18,25.10
2015,06,07,16,19,25.00
2015,06,07,16,20,24.90
2015,06,07,16,21,24.90
2015,06,07,16,22,24.90
2015,06,07,16,23,24.90
2015,06,07,16,24,24.90
2015,06,07,16,25,24.90
2015,06,07,16,26,24.90
2015,06,07,16,27,24.90
2015,06,07,16,28,24.90
2015,06,07,16,29,25.00
2015,06,07,16,30,25.10
2015,06,07,16,31,25.20
2015,06,07,16,32,25.20
2015,06,07,16,33,25.20
2015,06,07,16,34,25.30
2015,06,07,16,35,25.40
2015,06,07,16,36,25.50
2015,06,07,16,37,25.60
2015,06,07,16,38,25.60
2015,06,07,16,39,25.70
2015,06,07,16,40,25.60
2015,06,07,16,41,25.60
2015,06,07,16,42,25.70
2015,06,07,16,43,25.90
2015,06,07,16,44,26.00
2015,06,07,16,45,26.10
2015,06,07,16,46,26.20
2015,06,07,16,47,26.30
2015,06,07,16,48,26.30
2015,06,07,16,49,26.40
2015,06,07,16,50,26.50
2015,06,07,16,51,26.60
2015,06,07,16,52,26.80
2015,06,07,16,53,26.90
2015,06,07,16,54,27.10
2015,06,07,16,55,27.20
2015,06,07,16,56,27.20
2015,06,07,16,57,27.20
2015,06,07,16,58,27.30
2015,06,07,16,59,27.30
2015,06,07,17,00,27.30
2015,06,07,17,01,27.40
2015,06,07,17,02,27.50
2015,06,07,17,03,27.60
2015,06,07,17,04,27.70
2015,06,07,17,05,27.80
2015,06,07,17,06,27.90
2015,06,07,17,07,27.80
2015,06,07,17,08,27.80
2015,06,07,17,09,27.70
2015,06,07,17,10,27.70
2015,06,07,17,11,27.70
2015,06,07,17,12,27.60
2015,06,07,17,13,27.60
2015,06,07,17,14,27.60
2015,06,07,17,15,27.70
2015,06,07,17,16,27.80
2015,06,07,17,17,27.90
2015,06,07,17,18,27.90
2015,06,07,17,19,27.90
2015,06,07,17,20,27.90
2015,06,07,17,21,27.80
2015,06,07,17,22,27.90